Cloud_Cover
13 52 60 64 5 5 0 6 0 0 0 73 100 100 100 93 10 4 5 1 4 0 7 6 1 0 0 2 3 9 27 87 29 1 0 0 2 26 3 0 1 43 28
5 44 5 48 40 5 4 4 5 0 0 26 85 100 98 9 0 5 72 8 1 0 1 0 21 0 0 0 0 0 19 0 0 0 0 0 0 0 8 1 1 49 33
9 26 2 5 5 5 1 4 5 5 5 4 80 100 62 5 11 3 2 1 24 100 0 0 0 11 100 49 1 0 3 0 0 0 0 17 29 6 8 5 5 6 5
56 73 7 0 5 5 5 5 5 5 5 5 100 100 86 14 1 8 2 5 90 30 1 0 23 98 86 0 0 0 0 0 0 0 9 15 17 14 5 5 5 5 5
66 61 42 47 1 5 5 5 5 5 7 5 53 6 27 13 4 6 6 5 22 5 5 10 98 0 0 0 0 0 0 0 0 0 0 0 0 7 4 5 5 5 5
68 34 5 4 3 5 5 5 5 5 5 5 5 56 5 9 5 13 61 39 4 5 5 85 5 5 4 0 0 0 2 1 0 0 0 0 0 0 5 5 5 5 5
76 52 16 0 0 2 5 5 13 52 5 4 5 3 5 34 6 5 99 57 5 5 5 5 5 7 5 5 5 5 5 5 5 5 5 5 5 5 5 5 5 5 25
71 43 46 0 0 0 0 0 2 5 5 5 0 0 3 5 5 5 100 59 6 5 9 14 5 44 38 33 5 5 5 5 5 47 17 5 5 4 5 5 16 4 5
94 11 100 98 0 0 0 0 0 0 4 5 4 1 1 1 3 5 5 19 95 43 58 13 5 5 5 5 5 5 14 34 6 55 68 34 5 5 25 100 99 99 6
91 100 65 100 100 100 69 41 16 0 0 5 5 4 5 5 0 4 5 21 5 5 19 5 5 22 5 95 67 93 74 88 71 85 71 52 27 5 20 100 100 100 82
0 80 100 100 100 100 100 90 90 97 5 7 4 5 19 12 57 5 9 23 5 5 5 5 6 46 91 82 85 77 66 54 63 12 56 99 12 100 100 63 96 100 100
0 0 33 100 100 100 100 100 95 92 92 13 12 6 10 2 5 12 10 30 95 58 7 5 5 13 58 88 77 91 74 54 61 94 98 100 27 70 100 94 5 100 100
0 0 0 46 100 100 100 100 100 100 100 90 30 29 24 18 23 7 32 43 62 100 100 90 69 70 50 82 74 74 94 93 93 36 98 100 41 42 7 24 11 70 100
0 0 0 6 68 87 46 98 100 100 100 98 28 28 41 59 65 68 56 88 98 100 100 100 99 98 85 54 93 98 67 96 82 99 100 78 100 68 21 14 98 100 100
0 0 0 10 25 12 5 33 84 100 100 64 23 7 22 15 27 37 53 35 100 57 100 100 100 100 89 49 15 75 100 100 99 57 93 100 98 99 46 52 100 100 100
0 0 0 0 26 73 13 4 49 100 100 99 35 66 71 73 27 20 58 49 100 22 73 95 100 100 100 100 99 68 87 90 100 75 100 100 100 100 100 100 100 100 79
0 0 0 0 23 59 33 4 8 94 98 100 36 8 13 70 100 37 25 96 14 89 62 98 96 96 8 100 100 100 100 100 100 100 96 52 100 100 100 100 100 74 100
0 0 0 0 17 38 51 23 25 85 73 100 99 70 1 60 100 100 86 78 87 81 90 35 100 99 50 94 100 100 100 100 100 96 93 99 100 100 100 100 100 100 95
0 0 0 0 0 18 41 37 16 5 6 70 16 50 4 5 18 63 87 96 61 87 86 71 51 95 100 66 100 100 100 100 100 100 100 100 100 100 100 100 91 100 100
0 0 0 0 0 0 16 55 49 32 3 5 5 5 19 3 4 30 72 55 74 78 73 99 100 98 100 100 100 100 100 100 100 100 100 100 100 100 100 100 87 93 90
0 0 0 0 0 0 75 80 87 17 0 4 35 13 12 24 31 37 67 95 85 99 66 100 100 100 100 100 100 100 100 100 100 100 100 100 100 100 100 100 100 35 100
0 0 0 0 0 0 24 17 0 10 3 0 4 59 48 30 50 42 56 100 100 100 100 100 100 99 100 100 100 100 100 97 100 100 100 100 100 100 100 100 100 100 89
0 0 0 0 0 0 10 98 88 69 19 48 27 82 73 49 24 86 100 100 100 92 100 100 86 97 100 100 100 100 100 100 100 100 100 100 100 100 100 100 100 100 100
0 0 0 0 0 0 0 100 100 100 22 43 68 33 92 41 89 100 100 100 100 85 89 99 73 98 100 98 100 100 100 100 100 100 100 100 100 100 100 100 100 100 100
0 0 0 0 0 0 0 100 100 100 100 100 94 98 58 81 43 92 100 100 100 63 88 63 42 100 100 100 100 100 100 100 100 100 100 100 100 100 100 100 100 100 100
0 0 0 11 2 35 87 100 100 100 100 100 91 100 100 100 96 100 100 99 57 89 98 100 94 100 100 96 100 100 100 100 100 100 100 100 100 100 100 100 100 100 100